[TLELIST] Archives

 

(no subject)

June 21st 2008 PDT

HST 1 20580U 90037B 08171.80493261 +.00000326 +00000-0 +12355-4 0 01616 2 20580 028.4690 306.1595 0003422 054.8385 305.2524 15.00387521795373 ISS (ZARYA) 1 25544U 98067A 08172.53308641 .00016704 00000-0 11552-3 0 7058 2 25544 051.6401 359.1495 0008459 270.5154 195.8158 15.74638568549058 CXO 1 25867U 99040B 08172.83333333 +.00000312 +00000-0 +10000-3 0 02125 2 25867 063.7825 080.3918 6845692 278.8381 354.5878 00.37806219003646 ____________________________________________________________________ These 2-Line ...Continue Reading

Current TLEs

June 20th 2008 PDT

HST 1 20580U 90037B 08171.73841392 .00000318 00000-0 11752-4 0 1600 2 20580 028.4690 306.5931 0003408 054.0999 305.9908 15.00387443795363 ISS (ZARYA) 1 25544U 98067A 08170.94347382 +.00017507 +00000-0 +10894-3 0 06921 2 25544 051.6427 007.3198 0005894 350.2420 096.0875 15.77053772548801 CXO 1 25867U 99040B 08170.20833333 +.00000253 +00000-0 +10000-3 0 02112 2 25867 063.7732 080.4580 6840292 278.8550 357.2352 00.37805332003639 ____________________________________________________________________ These 2-Line ...Continue Reading

Current TLEs

June 19th 2008 PDT

HST 1 20580U 90037B 08169.74285135 .00000323 00000-0 12185-4 0 1590 2 20580 028.4689 319.6065 0003396 031.4739 328.6053 15.00386802795069 ISS (ZARYA) 1 25544U 98067A 08171.13644796 .00017706 00000-0 11009-3 0 6933 2 25544 051.6436 006.3253 0005869 351.1617 111.5028 15.77061664548837 CXO 1 25867U 99040B 08170.20833333 +.00000253 +00000-0 +10000-3 0 02112 2 25867 063.7732 080.4580 6840292 278.8550 357.2352 00.37805332003639 ____________________________________________________________________ These 2-Line ...Continue Reading

Current TLEs

June 18th 2008 PDT

HST 1 20580U 90037B 08169.74285135 .00000323 00000-0 12185-4 0 1590 2 20580 028.4689 319.6065 0003396 031.4739 328.6053 15.00386802795069 ISS (ZARYA) 1 25544U 98067A 08169.66879708 .00015177 00000-0 95227-4 0 6857 2 25544 051.6420 013.8949 0005607 344.5410 060.1505 15.76999695548609 CXO 1 25867U 99040B 08170.20833333 +.00000253 +00000-0 +10000-3 0 02112 2 25867 063.7732 080.4580 6840292 278.8550 357.2352 00.37805332003639 ____________________________________________________________________ These 2-Line ...Continue Reading

Current TLEs

June 17th 2008 PDT

HST 1 20580U 90037B 08168.54551327 .00000283 00000-0 90286-5 0 1589 2 20580 028.4689 327.4157 0003399 016.5898 343.4798 15.00386186794886 ISS (ZARYA) 1 25544U 98067A 08169.17208569 .00014173 00000-0 89283-4 0 6821 2 25544 051.6424 016.4569 0005791 345.4292 117.4184 15.76978834548524 CXO 1 25867U 99040B 08167.58333333 +.00000232 +00000-0 +10000-3 0 02100 2 25867 063.7639 080.5154 6833603 278.8881 359.8642 00.37805185003623 ____________________________________________________________________ These 2-Line ...Continue Reading

Current TLEs

June 16th 2008 PDT

HST 1 20580U 90037B 08166.88254282 +.00000279 +00000-0 +87195-5 0 01584 2 20580 028.4689 338.2597 0003423 358.6144 001.4437 15.00385755794631 ISS (ZARYA) 1 25544U 98067A 08167.84235066 .00010611 00000-0 68035-4 0 6741 2 25544 051.6416 023.3165 0005713 335.8465 132.8960 15.76927027548311 CXO 1 25867U 99040B 08167.58333333 +.00000232 +00000-0 +10000-3 0 02100 2 25867 063.7639 080.5154 6833603 278.8881 359.8642 00.37805185003623 ____________________________________________________________________ These 2-Line ...Continue Reading

Current TLEs

June 15th 2008 PDT

HST 1 20580U 90037B 08166.81602402 .00000274 00000-0 83796-5 0 1575 2 20580 028.4689 338.6935 0003421 357.8879 002.1697 15.00385711794622 ISS (ZARYA) 1 25544U 98067A 08167.14191554 .00009970 00000-0 64227-4 0 6696 2 25544 051.6419 026.9297 0005688 333.9347 115.8057 15.76908717548209 CXO 1 25867U 99040B 08164.91666667 +.00000265 +00000-0 +10000-3 0 02097 2 25867 063.7513 080.5602 6827273 278.9382 356.7929 00.37805193003617 ____________________________________________________________________ These 2-Line ...Continue Reading

Current TLEs

June 14th 2008 PDT

HST 1 20580U 90037B 08165.55216630 .00000253 00000-0 67136-5 0 1565 2 20580 028.4690 346.9359 0003452 343.7475 016.3007 15.00385298794437 ISS (ZARYA) 1 25544U 98067A 08166.19278128 .00010060 00000-0 64820-4 0 6649 2 25544 051.6412 031.8249 0005713 329.8004 128.2206 15.76888928548055 CXO 1 25867U 99040B 08164.91666667 +.00000265 +00000-0 +10000-3 0 02097 2 25867 063.7513 080.5602 6827273 278.9382 356.7929 00.37805193003617 ____________________________________________________________________ These 2-Line ...Continue Reading

Current TLEs

June 13th 2008 PDT

HST 1 20580U 90037B 08163.88919472 +.00000243 +00000-0 +59602-5 0 01561 2 20580 028.4691 357.7789 0003451 326.0892 033.9476 15.00384978794182 ISS (ZARYA) 1 25544U 98067A 08163.84755287 +.00000206 +00000-0 +53030-5 0 06489 2 25544 051.6402 043.9198 0005684 321.9601 133.8438 15.76737382547688 CXO 1 25867U 99040B 08164.91666667 +.00000265 +00000-0 +10000-3 0 02097 2 25867 063.7513 080.5602 6827273 278.9382 356.7929 00.37805193003617 ____________________________________________________________________ These 2-Line ...Continue Reading

Current TLEs

June 12th 2008 PDT

HST 1 20580U 90037B 08163.88919474 .00000240 00000-0 57059-5 0 1553 2 20580 028.4691 357.7789 0003451 326.0838 033.9530 15.00384954794187 ISS (ZARYA) 1 25544U 98067A 08164.22826546 .00053995 00000-0 32874-3 0 6528 2 25544 051.6441 041.9589 0005719 319.5149 138.9733 15.76881972547748 CXO 1 25867U 99040B 08162.25000000 +.00000307 +00000-0 +10000-3 0 02081 2 25867 063.7377 080.6146 6822819 278.9859 353.6967 00.37805746003600 ____________________________________________________________________ These 2-Line ...Continue Reading
  • This mailing list is a public mailing list - anyone may join or leave, at any time.
  • This mailing list is announce-only.

International Space Station (ISS) / Hubble Space Telescope (HST) / Chandra X-Ray Observatory Orbital Data via EMAIL

Privacy Policy:

Private list